Powrót do katalogu

COSMOS 1595

GLONASS

AktywnyNawigacjaMEO
NORAD 15261·PAYLOAD·🇷🇺 Russia

Wystrzelony Sep 4, 1984 z Baikonur Cosmodrome

Loading…

Następne Przeloty (najbliższe 24 godziny)

TLE

Starzejące sięSource: Space-Track

Epoka: Aug 29, 2026, 21:14 UTC

1 15261U 84095C   26241.88484604  .00000029  00000-0  00000+0 0  9998
2 15261  64.8575  68.6779 0047913 217.3670 320.4342  2.13102090301094

Śledź COSMOS 1595 w czasie rzeczywistym z AllMySat

Download on the App Store